Time,TemperatureF,DewpointF,PressureIn,WindDirection,WindDirectionDegrees,WindSpeedMPH,WindSpeedGustMPH,Humidity,HourlyPrecipIn,Conditions,Clouds,dailyrainin,SolarRadiationWatts/m^2,SoftwareType,DateUTC
2013-04-25 01:22:00,62.0,54.0,-100.00,NNW,347,2.0,5.0,76,-99.99,,,0.00,0.000000,,2013-04-25 05:22:00,
2013-04-25 01:32:00,62.0,54.0,-100.00,NNW,347,2.0,5.0,76,-99.99,,,0.00,0.000000,,2013-04-25 05:32:00,
2013-04-25 01:42:00,62.0,54.0,-100.00,NNW,347,2.0,5.0,76,-99.99,,,0.00,0.000000,,2013-04-25 05:42:00,
2013-04-25 01:51:00,62.0,54.0,-100.00,NNW,347,2.0,5.0,76,-99.99,,,0.00,0.000000,,2013-04-25 05:51:00,
2013-04-25 01:52:00,61.0,56.0,-100.00,NNW,345,2.0,5.0,83,0.00,,,0.00,0.000000,,2013-04-25 05:52:00,
2013-04-25 02:12:00,61.0,56.0,-100.00,NNW,345,2.0,5.0,83,0.00,,,0.00,0.000000,,2013-04-25 06:12:00,
2013-04-25 02:22:00,61.0,56.0,-100.00,NNW,345,2.0,5.0,83,0.00,,,0.00,0.000000,,2013-04-25 06:22:00,
2013-04-25 02:32:00,61.0,56.0,-100.00,NNW,345,2.0,5.0,83,0.00,,,0.00,0.000000,,2013-04-25 06:32:00,
2013-04-25 02:42:00,61.0,56.0,-100.00,NNW,345,2.0,5.0,83,0.00,,,0.00,0.000000,,2013-04-25 06:42:00,
2013-04-25 02:52:00,62.0,57.0,-100.00,East,91,3.0,8.0,85,0.00,,,0.00,0.000000,,2013-04-25 06:52:00,
2013-04-25 03:12:00,62.0,57.0,-100.00,East,91,3.0,8.0,85,0.00,,,0.00,0.000000,,2013-04-25 07:12:00,
2013-04-25 03:22:00,62.0,57.0,-100.00,East,91,3.0,8.0,85,0.00,,,0.00,0.000000,,2013-04-25 07:22:00,
2013-04-25 03:32:00,62.0,57.0,-100.00,East,91,3.0,8.0,85,0.00,,,0.00,0.000000,,2013-04-25 07:32:00,
2013-04-25 03:42:00,62.0,57.0,-100.00,East,91,3.0,8.0,85,0.00,,,0.00,0.000000,,2013-04-25 07:42:00,
2013-04-25 03:52:00,60.0,48.0,-100.00,East,82,3.0,8.0,64,0.00,,,0.00,0.000000,,2013-04-25 07:52:00,
2013-04-25 04:22:00,60.0,48.0,-100.00,East,82,3.0,8.0,64,0.00,,,0.00,0.000000,,2013-04-25 08:22:00,
2013-04-25 04:32:00,60.0,48.0,-100.00,East,82,3.0,8.0,64,0.00,,,0.00,0.000000,,2013-04-25 08:32:00,
2013-04-25 04:42:00,60.0,48.0,-100.00,East,82,3.0,8.0,64,0.00,,,0.00,0.000000,,2013-04-25 08:42:00,
2013-04-25 04:52:00,59.0,43.0,-100.00,ENE,64,4.0,16.0,56,0.00,,,0.00,0.000000,,2013-04-25 08:52:00,
2013-04-25 05:21:00,59.0,43.0,-100.00,ENE,64,4.0,16.0,56,0.00,,,0.00,0.000000,,2013-04-25 09:21:00,
2013-04-25 05:33:00,59.0,43.0,-100.00,ENE,64,4.0,16.0,56,0.00,,,0.00,0.000000,,2013-04-25 09:33:00,
2013-04-25 05:42:00,59.0,43.0,-100.00,ENE,64,4.0,16.0,56,0.00,,,0.00,0.000000,,2013-04-25 09:42:00,
2013-04-25 05:52:00,57.0,41.0,-100.00,East,81,2.0,15.0,56,0.00,,,0.00,0.000000,,2013-04-25 09:52:00,
2013-04-25 06:12:00,57.0,41.0,-100.00,East,81,2.0,15.0,56,0.00,,,0.00,0.000000,,2013-04-25 10:12:00,
2013-04-25 06:22:00,57.0,41.0,-100.00,East,81,2.0,15.0,56,0.00,,,0.00,0.000000,,2013-04-25 10:22:00,
2013-04-25 06:33:00,57.0,41.0,-100.00,East,81,2.0,15.0,56,0.00,,,0.00,0.000000,,2013-04-25 10:33:00,
2013-04-25 06:42:00,57.0,41.0,-100.00,East,81,2.0,15.0,56,0.00,,,0.00,0.000000,,2013-04-25 10:42:00,
2013-04-25 07:22:00,54.0,39.0,-100.00,NNE,20,3.0,10.0,57,0.00,,,0.00,1.000000,,2013-04-25 11:22:00,
2013-04-25 07:32:00,54.0,39.0,-100.00,NNE,20,3.0,10.0,57,0.00,,,0.00,1.000000,,2013-04-25 11:32:00,
2013-04-25 07:42:00,54.0,39.0,-100.00,NNE,20,3.0,10.0,57,0.00,,,0.00,1.000000,,2013-04-25 11:42:00,
2013-04-25 07:51:00,54.0,39.0,-100.00,NNE,20,3.0,10.0,57,0.00,,,0.00,1.000000,,2013-04-25 11:51:00,
2013-04-25 08:12:00,56.0,41.0,-100.00,ENE,73,3.0,10.0,57,0.00,,,0.00,47.000000,,2013-04-25 12:12:00,
2013-04-25 08:22:00,56.0,41.0,-100.00,ENE,73,3.0,10.0,57,0.00,,,0.00,47.000000,,2013-04-25 12:22:00,
2013-04-25 08:32:00,56.0,41.0,-100.00,ENE,73,3.0,10.0,57,0.00,,,0.00,47.000000,,2013-04-25 12:32:00,
2013-04-25 08:42:00,56.0,41.0,-100.00,ENE,73,3.0,10.0,57,0.00,,,0.00,47.000000,,2013-04-25 12:42:00,
2013-04-25 08:51:00,56.0,41.0,-100.00,ENE,73,3.0,10.0,57,0.00,,,0.00,47.000000,,2013-04-25 12:51:00,
2013-04-25 08:52:00,56.0,41.0,-100.00,ESE,102,3.0,13.0,58,0.00,,,0.00,125.000000,,2013-04-25 12:52:00,
2013-04-25 09:21:00,56.0,41.0,-100.00,ESE,102,3.0,13.0,58,0.00,,,0.00,125.000000,,2013-04-25 13:21:00,
2013-04-25 09:32:00,56.0,41.0,-100.00,ESE,102,3.0,13.0,58,0.00,,,0.00,125.000000,,2013-04-25 13:32:00,
2013-04-25 09:42:00,56.0,41.0,-100.00,ESE,102,3.0,13.0,58,0.00,,,0.00,125.000000,,2013-04-25 13:42:00,